Kodiak, AK

3:58 AM AKDT on July 29, 2017 (GMT -0800)
Kodiak

Weather History for PADQ - November, 2011

Change the Weather History Date:

Saturday, November 26, 2011

  Actual Average Record
Temperature  
Mean Temperature 18 °F 32 °F  
Max Temperature 20 °F 37 °F 51 °F (1981)
Min Temperature 15 °F 27 °F 7 °F (2011)
Degree Days  
Heating Degree Days 47 33  
Month to date heating degree days 940 802  
Since 1 July heating degree days 2740 2664  
Cooling Degree Days 0 0  
Month to date cooling degree days 0 0  
Year to date cooling degree days 0 1  
Moisture  
Dew Point 7 °F    
Average Humidity 0    
Maximum Humidity 0    
Minimum Humidity 0    
Precipitation  
Precipitation T in 0.25 in 1.83 in (1978)
Month to date precipitation 3.64 5.85  
Year to date precipitation 63.72 68.25  
Snow  
Snow T in 0.40 in 2.50 in (1932)
Month to date snowfall 25.1 5.0  
Since 1 July snowfall 25.1 6.1  
Since 1 September snowfall 25.1 6.1  
Snow Depth 9.00 in    
Sea Level Pressure  
Sea Level Pressure 29.55 in    
Wind  
Wind Speed 9 mph (WNW)    
Max Wind Speed 23 mph    
Max Gust Speed 31 mph    
Visibility 9 miles    
Events Snow    
T = Trace of Precipitation, MM = Missing Value Source: NWS Daily Summary

Daily Weather History Graph

Daily Weather History Graph

Search for Another Location

Airport or City:

Trip Planner

Search our weather history database for the weather conditions in past years. The results will help you decide how hot, cold, wet, or windy it might be!

Date:

Astronomy

Nov. 26, 2011 Rise Set
Actual Time 9:18 AM AKST 4:35 PM AKST
Civil Twilight 8:30 AM AKST 5:23 PM AKST
Nautical Twilight 7:40 AM AKST 6:13 PM AKST
Astronomical Twilight 6:54 AM AKST 6:59 PM AKST
Moon 11:14 AM AKST (11/26) 6:04 PM AKST (11/26)
Length of Visible Light 8h 52m
Length of Day
7h 16m
Waxing Crescent, 4% of the Moon is Illuminated
Nov 26
Waxing Crescent
Dec 2
First Quarter
Dec 10
Full
Dec 17
Last Quarter
Dec 24
New

Hourly Weather History & Observations

Time (AKST) Temp. Windchill Dew Point Humidity Pressure Visibility Wind Dir Wind Speed Gust Speed Precip Events Conditions
12:53 AM 18.0 °F 12.7 °F 10.9 °F 74% 29.57 in 10.0 mi NE 3.5 mph - N/A   Scattered Clouds
1:53 AM 18.0 °F - 12.9 °F 81% 29.57 in 4.0 mi Calm Calm - 0.00 in Snow Light Snow
3:53 AM 17.1 °F 2.5 °F 12.0 °F 81% 29.55 in 4.0 mi WNW 15.0 mph 20.7 mph 0.00 in Snow Light Snow
4:53 AM 16.0 °F 0.1 °F 7.0 °F 68% 29.55 in 4.0 mi NW 17.3 mph 25.3 mph 0.00 in Snow Light Snow
5:53 AM 15.1 °F -1.6 °F 3.9 °F 61% 29.55 in 8.0 mi WNW 18.4 mph 21.9 mph 0.00 in   Mostly Cloudy
6:53 AM 15.1 °F -1.6 °F 6.1 °F 68% 29.54 in 8.0 mi WNW 18.4 mph 26.5 mph 0.00 in Snow Light Snow
7:53 AM 15.1 °F -2.0 °F 6.1 °F 68% 29.55 in 8.0 mi WNW 19.6 mph 26.5 mph 0.00 in   Scattered Clouds
8:53 AM 15.1 °F -1.1 °F 6.1 °F 68% 29.56 in 8.0 mi WNW 17.3 mph 31.1 mph N/A   Scattered Clouds
9:53 AM 15.1 °F -0.6 °F 5.0 °F 64% 29.58 in 10.0 mi WNW 16.1 mph 24.2 mph N/A   Partly Cloudy
10:53 AM 16.0 °F 2.3 °F 6.1 °F 65% 29.59 in 10.0 mi WNW 12.7 mph 21.9 mph N/A   Partly Cloudy
11:53 AM 18.0 °F 4.8 °F 6.1 °F 60% 29.59 in 10.0 mi WNW 12.7 mph 20.7 mph N/A   Clear
12:53 PM 19.0 °F 6.8 °F 7.0 °F 59% 29.58 in 10.0 mi NW 11.5 mph 17.3 mph N/A   Clear
1:53 PM 19.9 °F 8.6 °F 7.0 °F 57% 29.57 in 10.0 mi NW 10.4 mph - N/A   Clear
2:53 PM 19.9 °F 13.4 °F 8.1 °F 60% 29.56 in 10.0 mi NW 4.6 mph - N/A   Clear
3:53 PM 19.0 °F 10.0 °F 8.1 °F 62% 29.56 in 10.0 mi NNW 6.9 mph - N/A   Clear
4:53 PM 14.0 °F 6.5 °F 6.1 °F 71% 29.57 in 10.0 mi WSW 4.6 mph - N/A   Partly Cloudy
5:53 PM 18.0 °F - 9.0 °F 68% 29.57 in 10.0 mi Calm Calm - N/A   Partly Cloudy
6:53 PM 12.9 °F 3.8 °F 6.1 °F 74% 29.55 in 10.0 mi SW 5.8 mph - N/A   Partly Cloudy
7:53 PM 12.9 °F 6.9 °F 7.0 °F 77% 29.53 in 10.0 mi WNW 3.5 mph - N/A   Scattered Clouds
8:53 PM 9.0 °F -2.2 °F 5.0 °F 84% 29.52 in 10.0 mi West 6.9 mph - N/A   Scattered Clouds
9:53 PM 10.0 °F 0.4 °F 6.1 °F 84% 29.53 in 10.0 mi West 5.8 mph - N/A   Scattered Clouds
10:53 PM 8.1 °F -2.0 °F 3.9 °F 83% 29.51 in 10.0 mi West 5.8 mph - N/A   Scattered Clouds
11:53 PM 7.0 °F -1.7 °F 3.0 °F 84% 29.49 in 10.0 mi West 4.6 mph - N/A   Mostly Cloudy